Location: Podia
(1.5569°N, 32.3469°E)
Time: 14:57:59
(UTC+00:00)

Cosmos 2251 Rocket - Pass Details

Date: 01 June 2020
Orbit: 765 x 791 km, 74.0° (Epoch: 04 July)

Event Time Altitude Azimuth Distance (km) Brightness Sun altitude
Rises 17:45:04 0° 336° (NNW) 3,219 7.4 -26.1°
Reaches altitude 10° 17:47:31 10° 330° (NNW) 2,297 6.7 -26.7°
Maximum altitude 17:52:28 45° 258° (WSW) 1,038 4.4 -27.8°
Enters shadow 17:54:09 34° 213° (SSW) 1,250 4.6 -28.2°
